Voltar ao catálogo

STARLINK-32947

AtivoComunicaçõesVLEO
NORAD 63121·PAYLOAD·🇺🇸 United States

Lançado Feb 27, 2025 de Cape Canaveral Space Force Station

Loading…

Próximas Passagens (próximas 24 horas)

TLE

AtualizadoSource: CelesTrak SupGP

Época: Sep 15, 2026, 03:07 UTC

1 63121C 25039T   26258.13034722  .00007865  00000+0  28481-3 0  2586
2 63121  43.0038  22.4183 0001692 267.5039 144.1975 15.27581495    12

Acompanhe STARLINK-32947 em tempo real com AllMySat

Download on the App Store